Starlink 32264

operational
NORAD ID: 61642 Int'l Des: 2024-191 Owner: SPXS Country: US Constellation: starlink
LEOCIRCULAR

Über Starlink 32264

Beschreibung wird geladen...

Live-Position

3D-Globus wird geladen...

Nächste Überflüge

Höhenverlauf

Altitude vs Time

uPlot chart will show altitude changes over time

Zweizeiliger Elementsatz

1 61642U 24191X 25352.15306251 -.00001632 00000-0 -49819-4 0 9995
2 61642 43.0016 258.6901 0001310 284.3981 75.6725 15.27568104 65020
Epoch: 18. Dez. 2025 • Age: 22 hours

Aktueller Status

Höhe 486.9 km
Geschwindigkeit 7.63 km/s
Subsatellitenpunkt 42.72°N, 144.54°W
Startdatum 23. Okt. 2024
Alter 1.1 years
Typ internet

Technische Details

Klassifizierung Payload
Masse 730.00 kg
Trockenmasse 700.00 kg
Gesamtmasse 730.00 kg
Länge 0.30 m
Durchmesser 4.10 m
Spannweite 29.00 m
Form Box + pan
Hersteller SPXS
Bus-Typ Starlink V2M
Phasenstatus In Orbit
Besitzer/Staat SPXS/US

Große Konstellationen

Loading constellations...